Location: Alsip
(41.6689°N, 87.7387°W)
Time: 13:54:08
(UTC+00:00)

ATLAS 5 CENTAUR R/B - Pass Details

Date: 14 July 2020
Orbit: 275 x 14307 km, 60.7° (Epoch: 04 August)

Event Time Altitude Azimuth Distance (km) Brightness Sun altitude
Rises 07:05:27 0° 330° (NNW) 2,358 5.7 -24.8°
Reaches altitude 10° 07:06:51 10° 339° (NNW) 1,760 5.0 -24.7°
Maximum altitude 07:10:15 43° 54° (NE) 1,234 3.9 -24.5°
Drops below altitude 10° 07:20:29 10° 124° (SE) 5,273 6.6 -23.8°
Sets 07:28:26 0° 130° (SE) 8,317 7.6 -23.3°
